Weather History for EGWU - September, 2013

Change the Weather History Date:

Friday, September 13, 2013

  Actual Average Record
Temperature  
Mean Temperature 60 °F -  
Max Temperature 64 °F 63 °F - ()
Min Temperature 55 °F 49 °F - ()
Degree Days  
Heating Degree Days 4    
Growing Degree Days 10 (Base 50)    
Moisture  
Dew Point 60 °F    
Average Humidity 94    
Maximum Humidity 100    
Minimum Humidity 85    
Precipitation  
Precipitation 0.08 in - - ()
Sea Level Pressure  
Sea Level Pressure 30.03 in    
Wind  
Wind Speed 5 mph ()    
Max Wind Speed 15 mph    
Max Gust Speed -    
Visibility 3.9 miles    
Events Rain    
T = Trace of Precipitation, MM = Missing Value Source: Averaged Metar Reports

Daily Weather History Graph

Daily Weather History Graph

Search for Another Location

Airport or City:

Trip Planner

Search our weather history database for the weather conditions in past years. The results will help you decide how hot, cold, wet, or windy it might be!

Date:

Astronomy

Sep. 13, 2013 Rise Set
Actual Time 6:33 AM BST 7:20 PM BST
Civil Twilight 5:59 AM BST 7:54 PM BST
Nautical Twilight 5:18 AM BST 8:34 PM BST
Astronomical Twilight 4:35 AM BST 9:17 PM BST
Moon 3:27 PM BST (9/13) No Moon Set
Length of Visible Light 13h 54m
Length of Day
12h 47m
First Quarter, 59% of the Moon is Illuminated
Sep 13
First Quarter
Sep 19
Full
Sep 27
Last Quarter
Oct 5
New
Oct 12
First Quarter

Hourly Weather History & Observations

Time (BST) Temp. Dew Point Humidity Pressure Visibility Wind Dir Wind Speed Gust Speed Precip Events Conditions
12:50 AM 60 °F 60 °F 98% 30.06 in 1 mi SSW 5.8 mph - -   Mostly Cloudy
12:50 AM 60.8 °F 59.0 °F 94% 30.06 in 1.5 mi SSW 5.8 mph - N/A   Mostly Cloudy
1:50 AM 60.8 °F 59.0 °F 94% 30.04 in - SW 4.6 mph - N/A   Overcast
2:50 AM 60.8 °F 60.8 °F 100% 30.04 in - SW 3.5 mph - N/A   Mostly Cloudy
3:50 AM 61 °F 60 °F 97% 30.05 in 4 mi WSW 3.5 mph - -   Mostly Cloudy
3:50 AM 60.8 °F 60.8 °F 100% 30.04 in 4.3 mi WSW 3.5 mph - N/A   Mostly Cloudy
4:50 AM 60.8 °F 60.8 °F 100% 30.04 in 4.3 mi SW 3.5 mph - N/A   Scattered Clouds
5:50 AM 62.6 °F 60.8 °F 94% 30.04 in 6.2 mi West 3.5 mph - N/A   Overcast
6:50 AM 62 °F 61 °F 94% 30.05 in 2 mi WSW 3.5 mph - - Rain Light Drizzle
6:50 AM 62.6 °F 60.8 °F 94% 30.04 in 2.5 mi WSW 3.5 mph - N/A   Overcast
7:27 AM 62.6 °F 60.8 °F 94% 30.04 in 2.5 mi SW 3.5 mph - N/A   Overcast
7:50 AM 62.6 °F 60.8 °F 94% 30.04 in 3.1 mi WSW 4.6 mph - N/A   Overcast
8:39 AM 62.6 °F 60.8 °F 94% 30.04 in 2.2 mi WSW 5.8 mph - N/A   Light Drizzle
8:50 AM 62.6 °F 60.8 °F 94% 30.04 in 2.2 mi West 5.8 mph - N/A   Light Drizzle
9:50 AM 64 °F 62 °F 93% 30.07 in 4 mi West 6.9 mph - - Rain Light Drizzle
9:50 AM 64.4 °F 62.6 °F 94% 30.06 in 4.3 mi West 6.9 mph - N/A   Haze
10:50 AM 64.4 °F 62.6 °F 94% 30.06 in 6.2 mi WNW 6.9 mph - N/A   Overcast
11:50 AM 64.4 °F 62.6 °F 94% 30.06 in 6.2 mi North 5.8 mph - N/A Rain Light Rain
12:28 PM 62.6 °F 60.8 °F 94% 30.06 in 6.2 mi NNE 6.9 mph - N/A Rain Light Rain
12:50 PM 63 °F 61 °F 91% 30.07 in 9 mi North 6.9 mph - - Rain Light Rain
12:50 PM 62.6 °F 60.8 °F 94% 30.06 in 6.2 mi North 6.9 mph - N/A Rain Light Rain
1:10 PM 62.6 °F 60.8 °F 94% 30.06 in 6.2 mi North 6.9 mph - N/A   Overcast
1:50 PM 62.6 °F 60.8 °F 94% 30.06 in 6.2 mi North 5.8 mph - N/A Rain Light Rain
2:50 PM 62.6 °F 59.0 °F 88% 30.06 in 6.2 mi NNE 8.1 mph - N/A   Overcast
3:50 PM 61 °F 58 °F 85% 30.05 in 5 mi NNE 5.8 mph - - Rain Light Rain
3:50 PM 60.8 °F 57.2 °F 88% 30.04 in 5.0 mi NNE 5.8 mph - N/A Rain Light Rain
4:50 PM 60.8 °F 59.0 °F 94% 30.04 in 4.3 mi North 1.2 mph - N/A Rain Light Rain
5:50 PM 60.8 °F 59.0 °F 94% 30.01 in 4.3 mi ESE 2.3 mph - N/A Rain Light Rain
6:50 PM 61 °F 59 °F 92% 30.01 in 3 mi SE 3.5 mph - - Rain Rain
6:50 PM 60.8 °F 59.0 °F 94% 30.01 in 2.8 mi SE 3.5 mph - N/A Rain Rain
7:18 PM 60.8 °F 59.0 °F 94% 29.98 in 1.9 mi ESE 4.6 mph - N/A Rain Rain
7:50 PM 60.8 °F 59.0 °F 94% 29.98 in 1.9 mi ESE 3.5 mph - N/A Rain Rain
8:50 PM 59.0 °F 59.0 °F 100% 29.95 in 1.8 mi ENE 4.6 mph - N/A   Mostly Cloudy
9:50 PM 58 °F 57 °F 97% 29.94 in 2 mi East 12.7 mph - -   Mostly Cloudy
9:50 PM 59.0 °F 57.2 °F 94% 29.92 in - East 12.7 mph - N/A   Mostly Cloudy
10:50 PM 57.2 °F 57.2 °F 100% 29.92 in 0.6 mi NNW 6.9 mph - N/A   Mostly Cloudy
11:50 PM 55.4 °F 53.6 °F 94% 29.89 in 3.1 mi NNE 15.0 mph - N/A   Mostly Cloudy